VNREDSAT 1

Last updated on Sat Jul 05 2025 00:02:29 GMT+0000 (Coordinated Universal Time)

1 39160U 13021B 25185.63298268 .00000458 00000+0 94122-4 0 9999 2 39160 97.9482 246.4336 0001575 99.1035 261.0347 14.64957273649429
UTC large
Height (km)
Speed (km/s)
/
Latitude / Longitude
Inclination (degrees)
Orbital Period (minutes)
Azimuth
Elevation
Range (km)
Doppler Factor

Next 0 passes for location: London (51.5072 / 0.1276)

Sorry there are no passes over London.